Change the Weather History Date:

Wednesday, June 26, 2013

  Actual Average Record
Temperature  
Mean Temperature 76 °F -  
Max Temperature 87 °F - - ()
Min Temperature 66 °F - - ()
Cooling Degree Days 12    
Growing Degree Days 26 (Base 50)    
Moisture  
Dew Point 59 °F    
Average Humidity 56    
Maximum Humidity 73    
Minimum Humidity 27    
Precipitation  
Precipitation 0.00 in - - ()
Sea Level Pressure  
Sea Level Pressure 29.98 in    
Wind  
Wind Speed 7 mph ()    
Max Wind Speed 14 mph    
Max Gust Speed -    
Visibility 7.4 miles    
Events      
T = Trace of Precipitation, MM = Missing Value Source: Averaged Metar Reports

Daily Weather History Graph

Daily Weather History Graph

Search for Another Location

Airport or City:

Trip Planner

Search our weather history database for the weather conditions in past years. The results will help you decide how hot, cold, wet, or windy it might be!

Date:

Astronomy

Jun. 26, 2013 Rise Set
Actual Time 5:23 AM CEST 8:26 PM CEST
Civil Twilight 4:50 AM CEST 8:59 PM CEST
Nautical Twilight 4:08 AM CEST 9:42 PM CEST
Astronomical Twilight 3:18 AM CEST 10:31 PM CEST
Moon 10:38 PM CEST (6/26) 8:55 AM CEST (6/26)
Length of Visible Light 16h 09m
Length of Day
15h 02m
Waning Gibbous, 87% of the Moon is Illuminated
Jun 26
Waning Gibbous
Jun 30
Last Quarter
Jul 8
New
Jul 16
First Quarter
Jul 22
Full

Hourly Weather History & Observations

Time (CEST) Temp. Heat Index Dew Point Humidity Pressure Visibility Wind Dir Wind Speed Gust Speed Precip Events Conditions
12:55 AM 73.4 °F - 64.4 °F 73% 29.98 in 6.2 mi NNW 6.9 mph - N/A   Mostly Cloudy
2:55 AM 71.6 °F - 59.0 °F 64% 29.98 in 6.2 mi WNW 6.9 mph - N/A   Scattered Clouds
3:55 AM 69.8 °F - 59.0 °F 68% 29.98 in 6.2 mi WNW 5.8 mph - N/A   Scattered Clouds
4:55 AM 68.0 °F - 57.2 °F 68% 29.98 in - West 4.6 mph - N/A   Clear
5:55 AM 68.0 °F - 57.2 °F 68% 29.98 in - WNW 5.8 mph - N/A   Clear
6:55 AM 66.2 °F - 57.2 °F 73% 29.98 in - WNW 5.8 mph - N/A   Clear
7:55 AM 71.6 °F - 59.0 °F 64% 29.98 in - WNW 6.9 mph - N/A   Clear
8:00 AM 72 °F - 59 °F 54% 29.99 in 12 mi WNW 6.9 mph - -  
8:55 AM 73.4 °F - 59.0 °F 61% 29.98 in - WNW 6.9 mph - N/A   Clear
9:55 AM 78.8 °F - 57.2 °F 47% 29.98 in - WNW 9.2 mph - N/A   Clear
10:55 AM 82.4 °F 82.9 °F 60.8 °F 48% 29.98 in - WNW 9.2 mph - N/A   Clear
11:55 AM 84.2 °F - 50.0 °F 30% 29.98 in 6.2 mi NW 8.1 mph - N/A   Scattered Clouds
12:55 PM 86.0 °F - 48.2 °F 27% 29.98 in 6.2 mi NW 11.5 mph - N/A   Scattered Clouds
1:55 PM 78.8 °F - 66.2 °F 65% 29.98 in 6.2 mi SW 13.8 mph - N/A   Scattered Clouds
2:00 PM 79 °F - 67 °F 57% 29.98 in 12 mi SW 13.8 mph - -   Partly Cloudy
2:55 PM 80.6 °F 82.3 °F 64.4 °F 58% 29.98 in 6.2 mi WSW 11.5 mph - N/A   Scattered Clouds
3:55 PM 78.8 °F - 68.0 °F 69% 29.95 in 6.2 mi WSW 11.5 mph - N/A   Scattered Clouds
4:55 PM 78.8 °F - 68.0 °F 69% 29.95 in 6.2 mi WSW 12.7 mph - N/A   Scattered Clouds
5:55 PM 78.8 °F - 62.6 °F 57% 29.95 in 6.2 mi SW 11.5 mph - N/A   Scattered Clouds
6:55 PM 80.6 °F 80.3 °F 53.6 °F 39% 29.95 in - WSW 9.2 mph - N/A   Clear
7:55 PM 78.8 °F - 51.8 °F 39% 29.95 in 6.2 mi NNE 6.9 mph - N/A   Partly Cloudy
8:00 PM 79 °F - 53 °F 29% 29.97 in 12 mi NNE 6.9 mph - -   Scattered Clouds
8:55 PM 77.0 °F - 57.2 °F 50% 29.98 in 6.2 mi NNE 6.9 mph - N/A   Partly Cloudy
9:55 PM 75.2 °F - 59.0 °F 57% 29.98 in - NNE 6.9 mph - N/A   Clear
10:55 PM 73.4 °F - 60.8 °F 65% 29.98 in - North 5.8 mph - N/A   Clear
11:55 PM 73.4 °F - 62.6 °F 69% 30.01 in - NNW 6.9 mph - N/A   Clear